DW2738 Weather Reports


Display with metric or nautical units.
time (UTC)temp
F
wind
direction
speed
MPH
gust
MPH
rain 1hr
in
rain 24hr
in
rain mn
in
humidity
%
barometer
mb
20260901125509 78 232 3.0 3.0 0.00 0.00 0.00 99 1016.0
20260901125009 78 270 2.0 2.0 0.00 0.00 0.00 99 1016.1
20260901124505 76 194 1.0 3.0 0.00 0.00 0.00 99 1016.0
20260901123958 77 252 2.0 2.0 0.00 0.00 0.00 99 1016.0
20260901123454 76 221 2.0 3.0 0.00 0.00 0.00 99 1016.0
20260901122951 75 277 0.0 1.0 0.00 0.00 0.00 99 1015.9
20260901122451 75 251 3.0 3.0 0.00 0.00 0.00 99 1016.1
20260901121950 75 210 2.0 3.0 0.00 0.00 0.00 99 1016.3
20260901121445 74 264 3.0 4.0 0.00 0.00 0.00 99 1016.2
20260901120941 74 261 2.0 3.0 0.00 0.00 0.00 99 1016.1
20260901120435 74 231 2.0 3.0 0.00 0.00 0.00 99 1016.2
20260901115931 74 276 2.0 2.0 0.00 0.00 0.00 99 1016.1
20260901115430 73 254 1.0 2.0 0.00 0.00 0.00 99 1016.2
20260901114928 73 254 1.0 2.0 0.00 0.00 0.00 99 1015.9
20260901114423 73 254 1.0 2.0 0.00 0.00 0.00 99 1016.0
20260901113922 73 254 1.0 2.0 0.00 0.00 0.00 99 1016.1
20260901113421 73 243 0.0 2.0 0.00 0.00 0.00 99 1015.8
20260901112916 73 270 1.0 3.0 0.00 0.00 0.00 99 1016.0
20260901112411 73 270 1.0 3.0 0.00 0.00 0.00 99 1016.3
20260901111906 72 248 2.0 3.0 0.00 0.00 0.00 99 1016.1
20260901111404 72 270 2.0 2.0 0.00 0.00 0.00 99 1016.3
20260901110903 72 270 2.0 2.0 0.00 0.00 0.00 99 1016.4
20260901110359 72 253 2.0 2.0 0.00 0.00 0.00 99 1016.4
20260901105855 72 270 2.0 3.0 0.00 0.00 0.00 99 1016.0
20260901105350 72 255 3.0 3.0 0.00 0.00 0.00 99 1016.2
20260901104846 72 258 2.0 2.0 0.00 0.00 0.00 99 1016.0
20260901104341 72 258 2.0 2.0 0.00 0.00 0.00 99 1016.0
20260901103836 71 240 2.0 3.0 0.00 0.00 0.00 99 1015.7
20260901103331 71 262 1.0 2.0 0.00 0.00 0.00 99 1015.7
20260901102826 72 190 0.0 0.0 0.00 0.00 0.00 99 1015.5
20260901102325 71 190 0.0 0.0 0.00 0.00 0.00 99 1015.5
20260901101822 72 190 0.0 0.0 0.00 0.00 0.00 99 1015.7
20260901101321 71 270 2.0 2.0 0.00 0.00 0.00 99 1015.5
20260901100821 71 270 2.0 2.0 0.00 0.00 0.00 99 1015.7
20260901100316 71 270 2.0 2.0 0.00 0.00 0.00 99 1015.6
20260901095814 71 270 2.0 2.0 0.00 0.00 0.00 99 1015.6
20260901095312 71 270 2.0 2.0 0.00 0.00 0.00 99 1015.8
20260901094806 71 270 2.0 2.0 0.00 0.00 0.00 99 1015.9
20260901094301 71 270 2.0 2.0 0.00 0.00 0.00 99 1015.9
20260901093756 71 270 2.0 2.0 0.00 0.00 0.00 99 1016.0
20260901093255 71 270 2.0 2.0 0.00 0.00 0.00 99 1015.9
20260901092751 71 270 2.0 2.0 0.00 0.00 0.00 99 1016.1
20260901092247 71 270 2.0 2.0 0.00 0.00 0.00 99 1015.9
20260901091742 71 270 2.0 2.0 0.00 0.00 0.00 99 1016.2
20260901091237 71 277 1.0 2.0 0.00 0.00 0.00 99 1015.9
20260901090732 71 277 1.0 2.0 0.00 0.00 0.00 99 1015.7
20260901090227 71 261 2.0 2.0 0.00 0.00 0.00 99 1016.1
20260901085723 71 261 2.0 2.0 0.00 0.00 0.00 99 1016.1
20260901085218 71 251 1.0 2.0 0.00 0.00 0.00 99 1016.0
20260901084715 71 251 1.0 2.0 0.00 0.00 0.00 99 1016.0
20260901084210 70 233 2.0 3.0 0.00 0.00 0.00 99 1016.0
20260901083705 70 270 1.0 2.0 0.00 0.00 0.00 99 1015.9
20260901083204 70 243 1.0 2.0 0.00 0.00 0.00 99 1016.0
20260901082658 70 261 2.0 2.0 0.00 0.00 0.00 99 1016.2
20260901082153 70 270 1.0 1.0 0.00 0.00 0.00 99 1016.2
20260901081649 70 282 2.0 3.0 0.00 0.00 0.00 99 1016.1
20260901081148 70 251 2.0 2.0 0.00 0.00 0.00 99 1016.0
20260901080643 70 270 2.0 3.0 0.00 0.00 0.00 99 1016.0
20260901080142 70 270 1.0 2.0 0.00 0.00 0.00 99 1016.2
20260901075637 70 233 0.0 2.0 0.00 0.00 0.00 99 1016.0
20260901075137 70 263 1.0 2.0 0.00 0.00 0.00 99 1016.1
20260901074636 69 240 0.0 2.0 0.00 0.00 0.00 99 1016.4
20260901074132 69 264 1.0 2.0 0.00 0.00 0.00 99 1016.5
20260901073628 69 243 2.0 2.0 0.00 0.00 0.00 99 1016.5
20260901073123 69 228 2.0 2.0 0.00 0.00 0.00 99 1016.3
20260901072619 69 261 0.0 1.0 0.00 0.00 0.00 99 1016.4
20260901072113 69 234 0.0 1.0 0.00 0.00 0.00 99 1016.5
20260901071608 69 234 0.0 1.0 0.00 0.00 0.00 99 1016.4
20260901071107 69 234 0.0 1.0 0.00 0.00 0.00 99 1016.6
20260901070601 69 234 0.0 1.0 0.00 0.00 0.00 99 1016.7
20260901070057 69 234 0.0 1.0 0.00 0.00 0.00 99 1016.7
20260901065550 69 234 0.0 1.0 0.00 0.00 0.00 99 1016.5
20260901065045 69 249 1.0 1.0 0.00 0.00 0.00 99 1016.5
20260901064542 69 254 0.0 2.0 0.00 0.00 0.00 99 1016.5
20260901064039 69 255 1.0 2.0 0.00 0.00 0.00 99 1016.5
20260901063535 68 254 1.0 1.0 0.00 0.00 0.00 99 1016.8
20260901063031 68 263 1.0 2.0 0.00 0.00 0.00 99 1016.8
20260901062526 68 254 1.0 1.0 0.00 0.00 0.00 99 1016.7
20260901062022 69 240 1.0 1.0 0.00 0.00 0.00 99 1016.8
20260901061518 68 240 0.0 2.0 0.00 0.00 0.00 99 1016.9
20260901061013 69 270 0.0 2.0 0.00 0.00 0.00 99 1017.2
20260901060507 68 270 1.0 1.0 0.00 0.00 0.00 99 1017.2
20260901060002 68 262 1.0 1.0 0.00 0.00 0.00 99 1017.0
20260901055458 68 255 1.0 2.0 0.00 0.00 0.00 99 1017.0
20260901054954 68 270 1.0 2.0 0.00 0.00 0.00 99 1017.1
20260901054451 68 276 2.0 2.0 0.00 0.00 0.00 99 1017.1
20260901053947 69 322 2.0 2.0 0.00 0.00 0.00 99 1017.0
20260901053442 69 215 0.0 2.0 0.00 0.00 0.00 99 1017.2
20260901052938 68 234 1.0 2.0 0.00 0.00 0.00 99 1017.3
20260901052433 68 243 1.0 2.0 0.00 0.00 0.00 99 1017.5
20260901051932 68 254 1.0 2.0 0.00 0.00 0.00 99 1017.5
20260901051427 68 263 1.0 2.0 0.00 0.00 0.00 99 1017.8
20260901050922 68 249 1.0 2.0 0.00 0.00 0.00 99 1017.7
20260901050418 68 249 1.0 2.0 0.00 0.00 0.00 99 1017.6
20260901045917 69 262 1.0 2.0 0.00 0.00 0.00 99 1017.6
20260901045412 68 270 1.0 2.0 0.00 0.00 0.00 99 1017.5
20260901044907 68 255 1.0 2.0 0.00 0.00 0.00 99 1017.6
20260901044403 69 237 2.0 2.0 0.00 0.00 0.00 99 1017.6
20260901043859 69 246 1.0 1.0 0.00 0.00 0.00 99 1017.9
20260901043355 69 263 1.0 2.0 0.00 0.00 0.00 99 1017.7
20260901042854 69 261 0.0 1.0 0.00 0.00 0.00 99 1017.8
20260901042349 69 270 0.0 1.0 0.00 0.00 0.00 99 1017.8
20260901041844 69 278 1.0 2.0 0.00 0.00 0.00 99 1017.7
20260901041339 69 254 0.0 2.0 0.00 0.00 0.00 99 1017.7
20260901040834 69 258 2.0 2.0 0.00 0.00 0.00 99 1017.4
20260901040333 69 249 1.0 2.0 0.00 0.00 0.00 99 1017.3
20260901035832 69 246 2.0 2.0 0.00 1.00 1.00 99 1017.5
20260901035332 69 254 1.0 1.0 0.00 1.00 1.00 99 1017.5
20260901034830 69 251 1.0 2.0 0.00 1.00 1.00 99 1017.5
20260901034326 69 258 2.0 2.0 0.00 1.00 1.00 99 1017.3
20260901033825 69 254 1.0 2.0 0.00 1.00 1.00 99 1017.6
20260901033325 70 300 2.0 2.0 0.00 1.00 1.00 99 1017.5
20260901032823 70 229 2.0 2.0 0.00 1.00 1.00 99 1017.4
20260901032323 70 251 1.0 2.0 0.00 1.00 1.00 99 1017.7
20260901031818 70 277 1.0 2.0 0.00 1.00 1.00 99 1017.6
20260901031314 70 276 1.0 2.0 0.00 1.00 1.00 99 1017.3
20260901030813 70 261 0.0 1.0 0.00 1.00 1.00 99 1017.5
20260901030308 70 262 1.0 1.0 0.00 1.00 1.00 99 1017.5
20260901025808 70 248 2.0 2.0 0.00 1.00 1.00 99 1017.7
20260901025305 70 270 1.0 2.0 0.00 1.00 1.00 99 1017.9
20260901024758 70 270 1.0 2.0 0.00 1.00 1.00 99 1017.9
20260901024257 71 260 2.0 2.0 0.00 1.00 1.00 99 1017.8
20260901023755 71 282 2.0 2.0 0.00 1.00 1.00 99 1018.0
20260901023250 71 258 2.0 2.0 0.00 1.00 1.00 99 1018.0
20260901022746 71 270 1.0 1.0 0.00 1.00 1.00 99 1017.9
20260901022241 71 259 2.0 2.0 0.00 1.00 1.00 99 1017.9
20260901021736 71 270 2.0 2.0 0.00 1.00 1.00 99 1018.0
20260901021232 71 276 2.0 2.0 0.00 1.00 1.00 99 1018.1
20260901020727 71 253 2.0 2.0 0.00 1.00 1.00 99 1017.9
20260901020222 71 253 2.0 2.0 0.00 1.00 1.00 99 1018.0
20260901015717 71 260 2.0 2.0 0.00 1.00 1.00 99 1018.1
20260901015213 71 254 2.0 2.0 0.00 1.00 1.00 99 1017.9
20260901014712 71 231 2.0 2.0 0.00 1.00 1.00 99 1018.0
20260901014209 71 259 2.0 2.0 0.00 1.00 1.00 99 1017.9
20260901013704 71 258 2.0 2.0 0.00 1.00 1.00 99 1018.0
20260901013200 71 270 2.0 2.0 0.00 1.00 1.00 99 1018.0
20260901012655 71 257 1.0 2.0 0.00 1.00 1.00 99 1018.1
20260901012149 71 270 1.0 2.0 0.00 1.00 1.00 99 1018.3
20260901011645 71 255 1.0 2.0 0.00 1.00 1.00 99 1018.0
20260901011144 71 257 1.0 2.0 0.00 1.00 1.00 99 1017.9
20260901010639 71 276 1.0 2.0 0.00 1.00 1.00 99 1017.9
20260901010139 71 270 2.0 2.0 0.00 1.00 1.00 99 1018.0
20260901005638 71 257 1.0 2.0 0.00 1.00 1.00 99 1017.8
20260901005134 71 260 2.0 2.0 0.00 1.00 1.00 99 1017.7
20260901004633 71 287 2.0 2.0 0.00 1.00 1.00 98 1018.0
20260901004128 71 277 1.0 2.0 0.00 1.00 1.00 98 1018.0
20260901003623 71 287 2.0 2.0 0.00 1.00 1.00 97 1017.8
20260901003122 71 260 2.0 2.0 0.00 1.00 1.00 97 1017.8
20260901002622 72 246 3.0 3.0 0.00 1.00 1.00 97 1017.6
20260901002116 72 254 2.0 2.0 0.00 1.00 1.00 96 1017.6
20260901001611 72 276 1.0 3.0 0.00 1.00 1.00 96 1017.6
20260901001107 72 262 2.0 3.0 0.00 1.00 1.00 95 1017.6
20260901000602 72 259 2.0 2.0 0.00 1.00 1.00 95 1017.4
20260901000058 73 249 1.0 2.0 0.00 1.00 1.00 95 1017.6
20260831235551 73 234 1.0 2.0 0.00 1.00 1.00 95 1017.5
20260831235047 73 249 1.0 2.0 0.00 1.00 1.00 95 1017.5
20260831234546 73 262 3.0 3.0 0.00 1.00 1.00 95 1017.6
20260831234042 73 249 0.0 2.0 0.00 1.00 1.00 94 1017.6
20260831233537 73 240 1.0 1.0 0.00 1.00 1.00 94 1017.8
20260831233033 73 259 2.0 2.0 0.00 1.00 1.00 94 1017.9
20260831232528 73 255 2.0 2.0 0.00 1.00 1.00 94 1017.8
20260831232023 73 262 1.0 2.0 0.00 1.00 1.00 94 1017.9
20260831231520 74 246 2.0 2.0 0.00 1.00 1.00 93 1017.6
20260831231015 74 253 2.0 2.0 0.00 1.00 1.00 93 1018.0
20260831230510 74 259 2.0 3.0 0.00 1.00 1.00 92 1018.1
20260831230005 74 270 2.0 3.0 0.00 1.00 1.00 92 1018.1
20260831225501 74 263 1.0 2.0 0.00 1.00 1.00 92 1018.2
20260831225000 74 243 2.0 2.0 0.00 1.00 1.00 91 1018.1
20260831224455 75 249 1.0 3.0 0.00 1.00 1.00 91 1018.3
20260831223950 75 262 0.0 3.0 0.00 1.00 1.00 90 1018.0
20260831223445 75 180 1.0 3.0 0.00 1.00 1.00 90 1018.0
20260831222942 75 203 1.0 3.0 0.00 1.00 1.00 90 1017.8
20260831222437 75 243 1.0 2.0 0.00 1.00 1.00 89 1018.2
20260831221932 76 325 5.0 5.0 0.00 1.00 1.00 88 1018.1
20260831221428 76 210 2.0 4.0 0.00 1.00 1.00 89 1018.2
20260831220923 76 263 1.0 3.0 0.00 1.00 1.00 88 1018.3
20260831220418 76 251 2.0 2.0 0.00 1.00 1.00 89 1018.3
20260831215913 76 225 2.0 3.0 0.00 1.00 1.00 88 1018.1
20260831215409 76 240 0.0 3.0 0.00 1.00 1.00 88 1017.9
20260831214905 76 279 2.0 4.0 0.00 1.00 1.00 87 1018.0
20260831214402 77 281 2.0 4.0 0.00 1.00 1.00 86 1018.1
20260831213858 77 230 3.0 6.0 0.00 1.00 1.00 86 1018.0
20260831213354 77 294 1.0 4.0 0.00 1.00 1.00 85 1017.7
20260831212849 77 232 2.0 5.0 0.00 1.00 1.00 86 1018.1
20260831212346 77 270 1.0 4.0 0.00 1.00 1.00 86 1018.0
20260831211844 77 177 2.0 5.0 0.00 1.00 1.00 85 1018.2
20260831211344 77 229 2.0 5.0 0.00 1.00 1.00 86 1017.8
20260831210844 77 201 2.0 4.0 0.00 1.00 1.00 86 1018.0
20260831210340 77 329 4.0 5.0 0.00 1.00 1.00 86 1017.9
20260831205835 77 199 3.0 4.0 0.00 1.00 1.00 86 1017.9
20260831205331 78 217 3.0 5.0 0.00 1.00 1.00 86 1017.9
20260831204831 78 327 0.0 5.0 0.00 1.00 1.00 87 1017.6
20260831204330 78 270 0.0 3.0 0.00 1.00 1.00 87 1018.1
20260831203830 78 221 2.0 2.0 0.00 1.00 1.00 87 1018.0
20260831203325 77 250 0.0 4.0 0.00 1.00 1.00 86 1018.0
20260831202823 78 207 4.0 4.0 0.00 1.00 1.00 86 1018.1
20260831202319 79 281 0.0 4.0 0.00 1.00 1.00 86 1018.2
20260831201818 78 243 3.0 3.0 0.00 1.00 1.00 86 1018.3
20260831201317 78 206 1.0 3.0 0.00 1.00 1.00 88 1018.3
20260831200813 78 206 1.0 3.0 0.00 1.00 1.00 87 1018.3
20260831200308 78 240 1.0 2.0 0.00 1.00 1.00 89 1018.3
20260831195803 78 234 0.0 3.0 0.00 1.00 1.00 89 1018.4
20260831195259 78 265 2.0 3.0 0.00 1.00 1.00 89 1018.3
20260831194753 78 234 1.0 1.0 0.00 1.00 1.00 89 1018.2
20260831194249 78 252 2.0 3.0 0.00 1.00 1.00 89 1018.1
20260831193742 79 254 0.0 2.0 0.00 1.00 1.00 89 1018.4
20260831193238 79 266 3.0 3.0 0.00 1.00 1.00 85 1018.5
20260831192733 79 264 2.0 2.0 0.00 1.00 1.00 86 1018.4
20260831192228 80 241 2.0 3.0 0.00 1.00 1.00 84 1018.6
20260831191724 80 257 2.0 3.0 0.00 1.00 1.00 83 1018.6
20260831191220 80 256 3.0 3.0 0.00 1.00 1.00 83 1018.7
20260831190715 80 231 2.0 4.0 0.00 1.00 1.00 83 1018.6
20260831190215 81 266 3.0 3.0 0.00 1.00 1.00 83 1018.4
20260831185710 81 270 2.0 2.0 0.00 1.00 1.00 79 1018.5
20260831185205 82 275 2.0 3.0 0.00 1.00 1.00 79 1018.5
20260831184704 82 250 3.0 3.0 0.00 1.00 1.00 77 1018.5
20260831184201 82 270 2.0 3.0 0.00 1.00 1.00 77 1018.6
20260831183700 82 220 2.0 2.0 0.00 1.00 1.00 77 1018.6
20260831183159 82 283 0.0 2.0 0.00 1.00 1.00 80 1018.4
20260831182659 82 255 3.0 3.0 0.00 1.00 1.00 80 1018.5
20260831182154 81 275 2.0 3.0 0.00 1.00 1.00 78 1018.7
20260831181649 82 264 2.0 2.0 0.00 1.00 1.00 78 1018.6
20260831181149 83 246 1.0 2.0 0.00 1.00 1.00 77 1018.6
20260831180644 84 243 3.0 4.0 0.00 1.00 1.00 74 1018.5
20260831180139 84 286 2.0 3.0 0.00 1.00 1.00 77 1018.5
20260831175634 83 265 2.0 3.0 0.00 1.00 1.00 79 1018.6
20260831175131 83 290 2.0 3.0 0.00 1.00 1.00 79 1018.6
20260831174631 83 253 3.0 3.0 0.00 1.00 1.00 77 1018.6
20260831174126 83 263 4.0 4.0 0.00 1.00 1.00 78 1018.9
20260831173624 83 246 2.0 3.0 0.00 1.00 1.00 77 1018.9
20260831173121 83 262 3.0 3.0 0.00 1.00 1.00 77 1018.8
20260831172620 82 263 1.0 2.0 0.00 1.00 1.00 82 1018.9
20260831172120 82 266 2.0 3.0 0.00 1.00 1.00 80 1019.0
20260831171615 81 255 3.0 3.0 0.00 1.00 1.00 80 1019.0
20260831171113 80 265 2.0 3.0 0.00 1.00 1.00 82 1018.8
20260831170609 80 254 3.0 4.0 0.00 1.00 1.00 79 1019.0
20260831170106 82 295 2.0 3.0 0.00 1.00 1.00 79 1019.0
20260831165601 81 263 3.0 3.0 0.00 1.00 1.00 79 1018.7
20260831165058 81 236 3.0 3.0 0.00 1.00 1.00 84 1018.8
20260831164553 81 216 2.0 4.0 0.00 1.00 1.00 81 1018.9
20260831164049 81 216 2.0 4.0 0.00 1.00 1.00 81 1018.9
20260831163543 81 270 3.0 3.0 0.00 1.00 1.00 81 1018.9
20260831163039 80 274 3.0 3.0 0.00 1.00 1.00 82 1018.7
20260831162538 81 312 2.0 2.0 0.00 1.00 1.00 83 1019.1
20260831162036 82 339 2.0 4.0 0.00 1.00 1.00 80 1019.0
20260831161533 82 275 2.0 4.0 0.00 1.00 1.00 81 1019.4
20260831161029 82 283 2.0 3.0 0.00 1.00 1.00 80 1019.2
20260831160528 82 250 2.0 3.0 0.00 1.00 1.00 77 1019.3
20260831160024 81 237 2.0 3.0 0.00 1.00 1.00 76 1019.4
20260831155518 81 267 3.0 4.0 0.00 1.00 1.00 78 1019.5
20260831155013 79 265 2.0 4.0 0.00 1.00 1.00 81 1019.5
20260831154509 80 231 3.0 4.0 0.00 1.00 1.00 79 1019.3
20260831154008 79 222 3.0 5.0 0.00 1.00 1.00 83 1019.1
20260831153503 80 217 5.0 5.0 0.00 1.00 1.00 82 1019.1
20260831153000 79 254 1.0 3.0 0.00 1.00 1.00 85 1019.3
20260831152455 78 243 3.0 3.0 0.00 1.00 1.00 86 1019.3
20260831151950 77 173 1.0 3.0 0.00 1.00 1.00 87 1019.5
20260831151449 77 274 2.0 4.0 0.00 1.00 1.00 87 1019.5
20260831150944 77 261 2.0 5.0 0.00 1.00 1.00 87 1019.4
20260831150440 76 180 1.0 4.0 0.00 1.00 1.00 88 1019.4
20260831145939 75 267 3.0 4.0 0.00 1.00 1.00 90 1019.5
20260831145435 73 243 2.0 3.0 0.00 1.00 1.00 99 1019.5
20260831144931 73 250 2.0 3.0 0.00 1.00 1.00 99 1019.7
20260831144426 72 267 3.0 3.0 0.00 1.00 1.00 99 1019.5
20260831143921 72 257 3.0 4.0 0.00 1.00 1.00 99 1019.6
20260831143416 71 265 2.0 3.0 0.00 1.00 1.00 99 1019.7
20260831142912 72 264 1.0 3.0 0.00 1.00 1.00 99 1019.6
20260831142408 71 257 2.0 5.0 0.00 1.00 1.00 99 1019.8
20260831141902 71 270 2.0 5.0 0.00 1.00 1.00 99 1019.8
20260831141356 71 293 2.0 3.0 0.00 1.00 1.00 99 1019.5
20260831140851 72 301 2.0 3.0 0.00 1.00 1.00 99 1019.7
20260831140345 71 279 2.0 3.0 0.00 1.00 1.00 99 1020.0
20260831135844 71 235 3.0 4.0 0.00 1.00 1.00 99 1019.5
20260831135339 71 300 2.0 3.0 0.00 1.00 1.00 99 1019.4
20260831134834 71 300 2.0 3.0 0.00 1.00 1.00 99 1019.5
20260831134331 71 270 0.0 1.0 0.00 1.00 1.00 99 1019.5
20260831133830 70 265 2.0 2.0 0.00 1.00 1.00 99 1019.6
20260831133330 70 265 2.0 2.0 0.00 1.00 1.00 99 1020.0
20260831132825 70 265 2.0 2.0 0.00 1.00 1.00 99 1019.7
20260831132320 70 265 2.0 2.0 0.00 1.00 1.00 99 1019.7
20260831131815 70 265 2.0 2.0 0.00 1.00 1.00 99 1019.5
20260831131311 70 201 0.0 0.0 0.00 1.00 1.00 99 1019.5
20260831130805 70 197 0.0 0.0 0.00 1.00 1.00 99 1019.3
20260831130301 70 198 0.0 0.0 0.00 1.00 1.00 99 1019.4